Other Surface Observations
Issued by NWS

Home | Current Version | Previous Version | Text Only | Print | Product List | Glossary On
Versions: 1 2 3 4 5 6 7 8 9 10 11 12 13 14 15 16 17 18 19 20 21 22 23 24 25 26 27 28 29 30 31 32 33 34 35 36 37 38 39 40 41 42 43 44 45 46 47 48 49 50
000
SXUS52 KTAE 222318
OSOTAE
OSOTAE
North Florida/South Alabama/Southwest Georgia Weather Roundup
National Weather Service Tallahassee Florida
700 PM EDT FRI MAY 22 2015

Note: "fair" indicates few or no clouds below 12,000 feet with no
significant weather and/or obstructions to visibility.

!FLZ017-115-028-034-025-230000
...North Florida...

CITY           SKY/WX    TMP DP  RH WIND       PRES   REMARKS
TALLAHASSEE    PTSUNNY   86  54  33 N10       30.12R
APALACHICOLA   SUNNY     85  68  56 W9        30.11S
PERRY          MOSUNNY   85  54  34 N6        30.11S
CROSS CITY       N/A     89  63  41 NE8       30.08S HX  90
JACKSONVILLE   PTSUNNY   74  65  73 E15       30.13R
$$

!FLZ112-006-005-002-011-230000
...Florida Panhandle...

CITY           SKY/WX    TMP DP  RH WIND       PRES   REMARKS
MARIANNA       SUNNY     83  50  31 N8        30.13R
BONIFAY        FAIR      82  51  34 NW3       30.15R
PANAMA CITY NW FAIR      84  57  39 NW9       30.12S
TYNDALL AFB    SUNNY     83  65  54 W10       30.11S
TYND DRONE APT FAIR      82  66  59 W6        30.11S
DE FUNIAK SPR  FAIR      81  53  38 MISG      30.15S
EGLIN AFB      MOSUNNY   82  60  46 S6        30.13R
DESTIN         SUNNY     82  60  47 W6        30.13R
HURLBURT       SUNNY     81  60  48 SW8       30.12S
CRESTVIEW      SUNNY     84  55  36 VRB5      30.16R
PENSACOLA      SUNNY     84  59  42 NW8       30.13S
$$

!ALZ063-066-230000
...South Alabama...

CITY           SKY/WX    TMP DP  RH WIND       PRES   REMARKS
DOTHAN         SUNNY     82  51  34 N7        30.18S
OZARK CAIRNS   SUNNY     81  50  34 N6        30.15R
FT RUCKER HELI SUNNY     81  52  36 N5        30.14S
RUCKER HELI 3  FAIR      80  50  34 N6        30.17R
RUCKER HELI 2  FAIR      80  51  36 VRB7      30.14S
FLORALA APT    SUNNY     81  50  33 VRB3      30.17R
ANDALUSIA      SUNNY     84  50  30 NE5       30.16R
TROY           SUNNY     79  52  38 NE7       30.17S
EUFALA         FAIR      81  54  39 CALM      30.15S
MOBILE         PTSUNNY   81  59  47 CALM      30.16S
$$

!GAZ120>161-230000
...Southwest and South Central Georgia...

CITY           SKY/WX    TMP DP  RH WIND       PRES   REMARKS
THOMASVILLE    FAIR      82  52  34 N6        30.14R
BAINBRIDGE     SUNNY     84  52  32 N6        30.14S
MOODY AFB      MOSUNNY   82  49  31 N5        30.11S
VALDOSTA       SUNNY     84  48  28 N5        30.12S
MOULTRIE       SUNNY     82  48  30 N5        30.14R
BLAKELY        SUNNY     82  52  34 CALM      30.15R
ALBANY         SUNNY     84  48  28 N6        30.15S
TIFTON         FAIR      81  45  28 NE5       30.14R
FITZGERALD     FAIR      83  45  26 N6        30.16R
CORDELE        FAIR      84  51  32 NE6       30.15S
AMERICUS       FAIR      79  50  36 N8        30.17S
HOMERVILLE     FAIR      86  52  30 N5        30.12S
$$

!GMZ750-755-770-775-230000
...Coastal and Buoy Obs...

STATION/POSITION TIME  TEMP    WIND        PRES    VSBY  WAVE
                       AIR SEA DIR/SP/G                  HT/PER
                 (UTC) (F)     (DEG/KT/KT) (MB)    (MI)  (FT/S)
KEATON BEACH     2300   85     350/  5/  8 1019.1F
CEDAR KEY        2300   84     320/  7/ 11 1019.1F
C TOWER          2300   78     260/  6/  7 1019.8R
APALACHICOLA BUO 2250   78 81   20/  6/  8 1019.7R         1/ 4
PANAMA CITY BUOY 2250   78 82   40/  4/  6 1020.6F         2/ 4
MOBILE BUOY      2250   76 82  100/ 10/ 12 1020.6F         2/ 5
ORANGE BCH AL BU 2250   77 81  200/  2/  2 1020.1R         1/ 4
$$



USA.gov is the U.S. government's official web portal to all federal, state and local government web resources and services.